SCP
0 0 0 0 0 0 0 0 0 0 0 0 0 0 0 0 0 0 0 0 0 0 0 0 0 0 0 0 0 0 0 0 0 1 1 2 3 3
0 0 0 0 0 0 0 0 0 0 0 0 0 0 0 0 0 0 0 0 0 0 0 0 0 0 0 0 0 0 0 0 0 1 1 2 3 4
0 0 0 0 0 0 0 0 0 0 0 0 0 0 0 0 0 0 0 0 0 0 0 0 0 0 0 0 0 0 0 0 1 1 2 3 4 4
0 0 0 0 0 0 0 0 0 0 0 0 0 0 0 0 0 0 0 0 0 0 0 0 0 0 0 0 0 0 0 0 1 1 2 3 3 3
0 0 0 0 0 0 0 0 0 0 0 0 0 0 0 0 0 0 0 0 0 0 0 0 0 0 0 0 0 0 0 0 1 1 2 2 2 2
0 0 0 0 0 0 0 0 0 0 0 0 0 0 0 0 0 0 0 0 0 0 0 0 0 0 0 0 0 0 0 0 0 1 1 1 1 1
0 0 0 0 0 0 0 0 0 0 0 0 0 0 0 0 0 0 0 0 0 0 0 0 0 0 0 0 0 0 0 0 0 0 0 0 0 0
0 0 0 0 0 0 0 0 0 0 0 0 0 0 0 0 0 0 0 0 0 0 0 0 0 0 0 0 0 0 0 0 0 0 0 0 0 0
0 0 0 0 0 0 0 0 0 0 0 0 0 0 0 0 0 0 0 0 0 0 0 0 0 0 0 0 0 0 0 0 0 0 0 0 0 0
0 0 0 0 0 0 0 0 0 0 0 0 0 0 0 0 0 0 0 0 0 0 0 0 0 0 0 0 0 0 0 0 0 0 0 0 0 0
0 0 0 0 0 0 0 0 0 0 0 0 0 0 0 0 0 0 0 0 0 0 0 0 0 0 0 0 0 0 0 0 0 0 0 0 0 0
0 0 0 0 0 0 0 0 0 0 0 0 0 0 0 0 0 0 0 0 0 0 0 0 0 0 0 0 0 0 0 0 0 0 0 0 0 0
0 0 0 0 0 0 0 0 0 0 0 0 0 0 0 0 0 0 0 0 0 0 0 0 0 0 0 0 0 0 0 0 0 0 0 0 0 0
0 0 0 0 0 0 0 0 0 0 0 0 0 0 0 0 0 0 0 0 0 0 0 0 0 0 0 0 0 0 0 0 0 0 0 0 0 0
0 0 0 0 0 0 0 0 0 0 0 0 0 0 0 0 0 0 0 0 0 0 0 0 0 0 0 0 0 0 0 0 0 0 0 0 0 0
0 0 0 0 0 0 0 0 0 0 0 0 0 0 0 0 0 0 0 0 0 0 0 0 0 0 0 0 0 0 0 0 0 0 0 0 0 0
0 0 0 0 0 0 0 0 0 0 0 0 0 0 0 0 0 0 0 0 0 0 0 0 0 0 0 0 0 0 0 0 0 0 0 0 0 0
0 0 0 0 0 0 0 0 0 0 0 0 0 0 0 0 0 0 0 0 0 0 0 0 0 0 0 0 0 0 0 0 0 0 0 0 0 0
0 0 0 0 0 0 0 0 0 0 0 0 0 0 0 0 0 0 0 0 0 0 0 0 0 0 0 0 0 0 0 0 0 0 0 0 0 0
0 0 0 0 0 0 0 0 0 0 0 0 0 0 0 0 0 0 0 0 0 0 0 0 0 0 0 0 0 0 0 0 0 0 0 0 0 0
0 0 0 0 0 0 0 0 0 0 0 0 0 0 0 0 0 0 0 0 0 0 0 0 0 0 0 0 0 0 0 0 0 0 0 0 0 0
0 0 0 0 0 0 0 0 0 0 0 0 0 0 0 0 0 0 0 0 0 0 0 0 0 0 0 0 0 0 0 0 0 0 0 0 0 0
0 0 0 0 0 0 0 0 0 0 0 0 0 0 0 0 0 0 0 0 0 0 0 0 0 0 0 0 0 0 0 0 0 0 0 0 0 0
Wind_Speed
7 8 7 6 6 6 6 6 7 9 8 7 6 6 6 5 7 5 4 2 5 6 5 7 10 14 18 22 25 27 27 26 24 23 21 19 17 15
6 8 7 6 6 6 6 6 6 8 8 4 6 8 8 9 12 6 2 4 6 6 7 10 13 17 20 23 26 28 29 27 26 24 21 19 16 17
8 9 9 8 7 6 5 6 6 7 9 6 6 7 7 7 7 4 1 2 3 9 11 13 17 21 25 26 27 28 28 27 25 23 20 17 17 22
11 10 10 9 8 7 6 7 7 7 8 10 7 6 6 6 4 1 2 3 2 9 13 17 21 25 29 30 25 23 24 23 22 20 18 19 24 28
12 11 11 10 10 8 7 7 7 7 7 8 8 5 4 3 2 4 6 4 5 8 12 16 22 28 33 29 15 11 16 18 18 19 24 28 30 30
13 12 11 10 10 8 7 7 7 8 8 8 7 5 4 2 3 4 4 4 5 6 10 13 20 26 32 26 12 15 20 23 25 28 30 31 31 32
13 11 11 13 11 8 9 9 9 9 8 7 7 5 4 3 3 4 6 5 5 5 6 9 11 13 18 22 21 27 31 33 34 35 35 34 34 34
12 10 10 9 12 15 18 19 18 14 10 8 6 5 4 4 6 7 5 3 3 4 6 9 9 11 13 14 26 33 36 38 38 38 38 36 35 33
11 10 9 10 11 12 17 21 19 19 18 11 7 6 5 6 9 7 6 7 6 3 5 8 8 11 11 17 30 33 35 37 38 38 37 36 35 33
12 11 9 10 12 15 15 15 13 11 9 8 6 4 7 9 9 11 12 11 9 7 6 7 7 9 11 12 26 30 33 35 36 36 36 36 34 32
13 12 10 11 17 20 15 14 12 6 1 6 6 10 16 17 15 11 10 10 10 6 4 6 7 9 10 11 18 28 30 32 33 34 34 33 31 28
11 11 12 15 20 18 12 11 9 4 4 9 13 17 16 15 12 8 7 10 10 7 4 4 5 4 8 8 8 9 15 22 25 24 25 24 21 16
11 10 10 19 19 16 12 8 7 3 6 11 12 12 11 9 8 7 6 5 8 8 4 2 3 4 7 7 5 5 6 7 9 11 15 19 19 16
10 9 11 18 16 12 10 11 10 6 7 9 10 9 9 9 9 9 10 10 9 10 7 6 6 6 8 8 6 5 6 6 7 9 10 16 18 19
10 16 17 15 11 8 12 14 9 6 7 9 9 9 9 10 10 10 11 10 9 9 9 7 6 5 5 7 7 7 7 6 6 7 8 8 8 8
11 13 13 11 9 8 8 8 8 7 7 8 9 10 9 9 9 8 8 7 7 8 6 6 6 6 6 6 7 7 5 5 5 6 8 9 9 10
11 7 7 7 7 6 6 7 7 7 8 7 8 9 9 9 8 5 5 6 8 9 8 5 5 5 6 6 7 8 8 7 7 8 10 11 11 10
9 7 8 7 7 7 6 6 7 7 7 7 7 8 8 8 8 6 6 7 7 8 7 6 5 6 7 8 7 8 7 7 7 8 9 11 10 8
7 7 8 8 7 6 6 6 6 6 6 6 7 7 7 8 7 7 5 5 6 7 6 6 5 7 10 10 8 7 6 6 7 8 8 9 9 7
8 8 7 7 7 6 5 5 6 6 6 6 6 6 6 7 7 6 5 5 5 6 6 5 5 6 7 9 7 5 7 7 8 9 10 9 8 10
8 7 7 7 7 6 5 5 6 6 6 6 6 6 5 5 5 4 4 7 5 5 5 6 9 12 8 7 8 7 8 12 11 8 9 8 7 6
7 7 7 7 7 6 5 5 5 5 6 6 6 5 4 3 4 4 4 4 5 6 9 9 10 8 7 9 10 11 10 10 13 15 11 5 5 5
7 7 7 7 6 5 5 5 5 4 5 5 4 4 4 3 3 4 5 5 6 8 8 7 7 8 8 8 8 8 9 8 7 7 7 12 15 20
Wind_Direction
292 291 288 285 283 279 277 273 280 288 287 284 288 292 300 304 309 312 318 54 79 63 32 356 332 315 301 288 276 266 258 252 248 245 246 246 234 204
288 285 283 280 278 278 276 274 270 275 279 266 279 287 293 295 299 300 262 128 95 66 31 4 345 330 316 299 280 264 252 243 237 235 235 235 217 178
303 298 293 289 282 278 274 270 268 267 276 277 271 278 279 283 289 284 199 129 83 51 26 8 353 342 330 312 286 261 244 233 225 223 222 213 177 150
308 302 296 291 284 277 270 267 266 260 268 277 278 275 271 273 275 252 103 95 58 32 17 7 358 349 339 321 291 251 226 213 207 204 189 160 142 134
306 302 296 290 285 279 275 272 270 269 261 269 274 269 261 249 206 103 80 55 44 25 16 8 1 356 347 334 308 211 182 175 170 156 139 130 128 126
302 295 292 289 284 285 287 282 281 278 270 266 266 262 245 205 144 118 96 63 46 30 24 14 6 3 356 356 28 108 119 122 121 119 117 117 117 116
300 299 302 305 312 315 306 298 291 280 271 264 259 252 224 175 140 123 115 102 64 36 35 21 8 8 2 9 44 85 96 100 102 103 104 104 105 106
312 316 314 318 335 324 314 305 294 281 268 252 245 238 203 148 132 136 136 129 81 32 47 37 22 23 16 21 48 70 83 90 93 95 96 97 98 99
324 321 324 333 334 327 314 307 296 283 267 246 230 217 171 144 139 130 99 86 85 71 63 53 33 38 28 37 52 65 76 83 88 90 92 93 93 94
323 320 328 336 335 327 314 306 300 289 263 223 211 184 142 133 124 118 112 102 85 65 59 71 53 54 46 45 56 66 75 82 87 90 92 92 91 91
323 327 337 339 331 328 319 312 314 315 272 163 146 125 122 122 125 123 123 113 100 81 58 80 83 77 66 61 64 72 78 84 88 91 93 94 94 92
323 327 337 337 331 329 322 318 323 342 97 109 107 106 109 108 105 110 120 121 118 102 90 101 111 96 80 67 69 71 77 84 89 92 96 96 96 96
326 330 330 329 331 332 332 333 339 8 101 105 106 107 106 100 90 80 74 93 108 108 138 128 92 80 98 111 99 95 94 95 94 94 97 100 100 102
327 326 324 326 333 348 356 360 13 61 98 104 106 106 105 101 96 89 87 87 97 109 109 99 102 106 111 111 104 99 90 86 91 97 101 101 104 113
330 327 329 336 348 1 7 13 26 62 91 100 102 101 101 104 104 102 100 102 103 104 110 112 110 106 99 105 106 109 106 99 100 105 109 112 117 118
334 326 332 353 6 9 12 23 38 55 77 92 99 102 105 106 107 113 118 119 113 114 119 111 102 103 104 101 103 107 102 102 103 97 94 88 81 77
326 334 1 4 7 15 29 35 44 58 73 85 99 105 107 110 112 112 114 114 114 120 122 116 107 104 101 100 101 99 101 97 95 92 90 84 74 71
347 3 5 4 7 16 32 43 49 57 67 80 92 102 108 111 110 100 103 111 118 124 126 131 131 114 98 79 78 104 103 102 100 95 93 92 85 73
6 5 5 3 4 15 32 47 55 60 67 76 87 97 105 108 108 108 111 117 121 125 130 133 130 124 119 111 83 68 107 110 103 97 94 95 97 93
5 2 1 1 3 14 33 51 58 63 70 77 83 91 99 106 110 116 122 128 126 128 133 135 124 116 116 114 103 71 69 105 102 98 95 89 86 93
358 358 359 360 5 14 32 55 63 67 72 75 80 86 91 102 117 132 135 140 135 133 125 117 112 109 102 97 91 79 61 70 96 116 125 126 131 131
354 354 356 0 6 15 27 53 71 73 75 76 80 80 78 87 112 123 124 123 114 108 106 110 112 109 107 109 109 106 98 88 79 76 63 98 160 148
351 350 352 356 4 14 25 45 67 80 85 86 82 76 70 70 82 95 101 107 111 115 117 117 113 111 117 119 116 117 121 108 89 73 45 34 80 101